Regional Weather Roundup
Issued by NWS

Home | Current Version | Previous Version | Text Only | Print | Product List | Glossary Off
Versions: 1 2 3 4 5 6 7 8 9 10 11 12 13 14 15 16 17 18 19 20 21 22 23 24 25 26 27 28 29 30 31 32 33 34 35 36 37 38 39 40 41 42 43 44 45 46 47 48 49 50

000
ASUS45 KABQ 231601
RWRNM
NEW MEXICO REGIONAL WEATHER ROUNDUP
NATIONAL WEATHER SERVICE ALBUQUERQUE NM
900 AM MST THU FEB 23 2017

NOTE: "FAIR" MEANS FEW OR NO CLOUDS BELOW 12,000 FEET AGL WITH NO
       SIGNIFICANT WEATHER OR OBSTRUCTIONS TO VISION.

      THIS PRODUCT IS RELEASED AS TWO VERSIONS.  ONE VERSION NEAR
      THE TOP OF THE HOUR CONTAINING PRELIMINARY DATA FROM ALBUQUERQUE
      AND OTHER STATIONS.  A FINAL VERSION WITH ADDITIONAL DATA IS
      ISSUED ABOUT 10 MINUTES AFTER THE HOUR.

NMZ501-503-504-510>518-231700-
NORTHWEST PLATEAU/NORTHCENTRAL MOUNTAINS

CITY           SKY/WX    TMP DP  RH WIND       PRES   REMARKS
FARMINGTON     FAIR      36  19  50 W21G30    29.71R WCI  25
LOS ALAMOS     FAIR      40  20  44 W18G30    29.69R WCI  31
SANTA FE       PTSUNNY   47  19  33 W25G36    29.68R
TAOS             N/A     41  16  36 W36G44    29.63S
ANGEL FIRE     LGT SNOW  32  22  67 SW21G31   29.61R WCI  20

$$
NMZ402-403-502-505>509-231700-
WESTCENTRAL MOUNTAINS/SOUTHWEST MOUNTAINS

CITY           SKY/WX    TMP DP  RH WIND       PRES   REMARKS
GALLUP         FAIR      33  18  53 W24G31    29.81R WCI  20
GRANTS         FAIR      39  18  43 W23G44    29.77R WCI  28
SILVER CITY    FAIR      51  32  48 W17       29.87S

$$
NMZ407-409-411-412-231700-
SOUTHERN DESERTS

CITY           SKY/WX    TMP DP  RH WIND       PRES   REMARKS
DEMING         FAIR      57  39  51 W6        29.85S
LAS CRUCES     FAIR      58  38  46 W32G39    29.79F
ALAMOGORDO     FAIR      63  32  31 SW15G28   29.80R
T OR C         FAIR      58  23  26 W23G36    29.76R

$$
NMZ519>523-231700-
CENTRAL VALLEYS/CENTRAL HIGHLANDS

CITY           SKY/WX    TMP DP  RH WIND       PRES   REMARKS
ALBUQUERQUE    FAIR      51  18  27 W26G36    29.70R
DOUBLE EAGLE   MOSUNNY   46  23  39 W30G38    29.72R
MORIARTY ARPT  FAIR      53  16  22 SW32G39   29.70R
CLINES CORNERS FAIR      48  13  24 W39G56    29.67S
BELEN          FAIR      54  17  23 W25G38    29.72R
SOCORRO        FAIR      60   7  12 SW12G21   29.72S

$$
NMZ524>526-539-540-231700-
SOUTHCENTRAL MOUNTAINS

CITY           SKY/WX    TMP DP  RH WIND       PRES   REMARKS
RUIDOSO        NOT AVBL

$$
NMZ527>531-231700-
NORTHEAST HIGHLANDS/NORTHEAST PLAINS

CITY           SKY/WX    TMP DP  RH WIND       PRES   REMARKS
RATON          FAIR      51  16  24 SW28G40   29.50F
CLAYTON        FAIR      58  30  34 SW24G39   29.51F

$$
NMZ532>537-231700-
EASTCENTRAL PLAINS

CITY           SKY/WX    TMP DP  RH WIND       PRES   REMARKS
TUCUMCARI      FAIR      66  30  26 SW32G41   29.55F
CANNON AFB     FAIR      64  32  29 SW24      29.62F
CLOVIS AIRPORT FAIR      64  36  34 SW21G28   29.63F

$$
NMZ028-029-538-231700-
SOUTHEAST PLAINS

CITY           SKY/WX    TMP DP  RH WIND       PRES   REMARKS
ROSWELL        FAIR      71  32  23 SW22        N/A
ARTESIA        FAIR      70  32  24 SW29G35   29.67S
CARLSBAD       FAIR      75  28  17 W28G37    29.67S
HOBBS          SUNNY     72  27  18 SW22G29   29.70F


$$




USA.gov is the U.S. government's official web portal to all federal, state and local government web resources and services.